| time (UTC) | temp C | wind direction | speed KPH | gust KPH | rain 1hr cm | rain 24hr cm | rain mn cm | humidity % | barometer mb |
| 20260505064504 | 22 | 168 | 0.0 | 3.2 | 0.00 | 0.05 | 0.00 | 47 | 1017.6 |
| 20260505063817 | 22 | 168 | 0.0 | 3.2 | 0.00 | 0.05 | 0.00 | 48 | 1017.5 |
| 20260505062704 | 22 | 168 | 0.0 | 3.2 | 0.00 | 0.05 | 0.00 | 46 | 1017.4 |
| 20260505061803 | 22 | 168 | 1.6 | 6.4 | 0.00 | 0.05 | 0.00 | 45 | 1017.2 |
| 20260505060903 | 22 | 168 | 1.6 | 6.4 | 0.00 | 0.05 | 0.00 | 45 | 1017.2 |
| 20260505060004 | 22 | 172 | 4.8 | 9.7 | 0.00 | 0.05 | 0.00 | 47 | 1017.2 |
| 20260505055618 | 23 | 172 | 3.2 | 9.7 | 0.00 | 0.05 | 0.00 | 45 | 1017.3 |
| 20260505054503 | 23 | 173 | 3.2 | 8.0 | 0.00 | 0.05 | 0.00 | 45 | 1017.1 |
| 20260505053603 | 23 | 172 | 3.2 | 8.0 | 0.00 | 0.05 | 0.00 | 44 | 1017.2 |
| 20260505052703 | 23 | 171 | 3.2 | 8.0 | 0.00 | 0.05 | 0.00 | 45 | 1017.2 |
| 20260505051803 | 23 | 169 | 3.2 | 8.0 | 0.00 | 0.05 | 0.00 | 43 | 1017.2 |
| 20260505050903 | 22 | 168 | 4.8 | 9.7 | 0.00 | 0.05 | 0.00 | 44 | 1017.2 |
| 20260505040903 | 23 | 235 | 4.8 | 11.3 | 0.00 | 0.05 | 0.00 | 43 | 1016.7 |
| 20260505040004 | 23 | 223 | 4.8 | 8.0 | 0.00 | 0.05 | 0.00 | 42 | 1016.6 |
| 20260505035403 | 22 | 198 | 6.4 | 11.3 | 0.00 | 0.05 | 0.00 | 44 | 1016.7 |
| 20260505034503 | 22 | 202 | 4.8 | 9.7 | 0.00 | 0.05 | 0.00 | 42 | 1016.7 |
| 20260505033603 | 22 | 248 | 8.0 | 16.1 | 0.00 | 0.05 | 0.00 | 44 | 1016.7 |
| 20260505032703 | 23 | 256 | 6.4 | 14.5 | 0.00 | 0.05 | 0.00 | 42 | 1016.7 |
| 20260505032019 | 22 | 250 | 4.8 | 11.3 | 0.00 | 0.05 | 0.00 | 42 | 1016.6 |
| 20260505030903 | 22 | 209 | 4.8 | 12.9 | 0.00 | 0.05 | 0.00 | 46 | 1016.8 |
| 20260505030217 | 22 | 238 | 4.8 | 14.5 | 0.00 | 0.05 | 0.00 | 46 | 1017.0 |
| 20260505025403 | 22 | 252 | 6.4 | 14.5 | 0.00 | 0.05 | 0.00 | 45 | 1017.0 |
| 20260505024503 | 22 | 289 | 8.0 | 17.7 | 0.00 | 0.05 | 0.00 | 49 | 1017.1 |
| 20260505023603 | 21 | 296 | 8.0 | 16.1 | 0.00 | 0.05 | 0.00 | 48 | 1017.1 |
| 20260505022703 | 21 | 249 | 4.8 | 12.9 | 0.00 | 0.05 | 0.00 | 47 | 1017.2 |
| 20260505022018 | 21 | 263 | 6.4 | 19.3 | 0.00 | 0.05 | 0.00 | 49 | 1017.3 |
| 20260505020903 | 21 | 293 | 6.4 | 17.7 | 0.00 | 0.05 | 0.00 | 49 | 1017.5 |
| 20260505020003 | 21 | 290 | 9.7 | 19.3 | 0.00 | 0.05 | 0.00 | 49 | 1017.5 |
| 20260505015403 | 21 | 279 | 6.4 | 16.1 | 0.00 | 0.05 | 0.00 | 51 | 1017.6 |
| 20260505014503 | 21 | 281 | 6.4 | 19.3 | 0.00 | 0.10 | 0.00 | 51 | 1017.7 |
| 20260505013603 | 20 | 297 | 11.3 | 22.5 | 0.00 | 0.18 | 0.00 | 52 | 1017.7 |
| 20260505012703 | 20 | 277 | 8.0 | 17.7 | 0.00 | 0.20 | 0.00 | 54 | 1018.1 |
| 20260505011803 | 20 | 251 | 8.0 | 17.7 | 0.00 | 0.20 | 0.00 | 52 | 1018.2 |
| 20260505010903 | 20 | 258 | 8.0 | 17.7 | 0.00 | 0.20 | 0.00 | 54 | 1018.4 |
| 20260505010003 | 20 | 275 | 12.9 | 20.9 | 0.00 | 0.23 | 0.00 | 56 | 1018.4 |
| 20260505005403 | 20 | 288 | 12.9 | 22.5 | 0.00 | 0.23 | 0.00 | 54 | 1018.6 |
| 20260505004720 | 20 | 280 | 11.3 | 24.1 | 0.00 | 0.23 | 0.00 | 55 | 1018.6 |
| 20260505003819 | 19 | 273 | 8.0 | 19.3 | 0.00 | 0.28 | 0.00 | 61 | 1018.8 |
| 20260505002703 | 18 | 286 | 9.7 | 19.3 | 0.00 | 0.30 | 0.00 | 61 | 1019.0 |
| 20260505001803 | 18 | 283 | 11.3 | 17.7 | 0.00 | 0.30 | 0.00 | 60 | 1019.2 |
| 20260505000903 | 18 | 281 | 8.0 | 17.7 | 0.00 | 0.33 | 0.00 | 61 | 1019.2 |
| 20260505000004 | 18 | 275 | 4.8 | 12.9 | 0.00 | 0.33 | 0.00 | 61 | 1019.4 |
| 20260504235403 | 18 | 280 | 3.2 | 12.9 | 0.00 | 0.33 | 0.00 | 62 | 1019.4 |
| 20260504234503 | 17 | 293 | 1.6 | 8.0 | 0.00 | 0.33 | 0.00 | 63 | 1019.6 |
| 20260504233603 | 17 | 297 | 1.6 | 8.0 | 0.00 | 0.33 | 0.00 | 61 | 1019.6 |
| 20260504232918 | 17 | 297 | 3.2 | 6.4 | 0.00 | 0.36 | 0.00 | 62 | 1019.6 |
| 20260504231803 | 17 | 296 | 1.6 | 6.4 | 0.00 | 0.36 | 0.00 | 67 | 1019.8 |
| 20260504230903 | 17 | 294 | 0.0 | 3.2 | 0.00 | 0.36 | 0.00 | 70 | 1019.8 |
| 20260504230003 | 16 | 294 | 1.6 | 4.8 | 0.00 | 0.38 | 0.00 | 75 | 1019.8 |
| 20260504225619 | 16 | 294 | 1.6 | 8.0 | 0.00 | 0.38 | 0.00 | 76 | 1019.9 |
| 20260504224504 | 16 | 245 | 1.6 | 6.4 | 0.00 | 0.43 | 0.00 | 76 | 1019.7 |
| 20260504223603 | 15 | 241 | 0.0 | 3.2 | 0.00 | 0.46 | 0.00 | 77 | 1019.7 |
| 20260504222703 | 14 | 241 | 1.6 | 4.8 | 0.00 | 0.51 | 0.00 | 79 | 1019.6 |
| 20260504221803 | 13 | 241 | 0.0 | 3.2 | 0.00 | 0.51 | 0.00 | 81 | 1019.4 |
| 20260504220903 | 13 | 241 | 1.6 | 4.8 | 0.00 | 0.51 | 0.00 | 83 | 1019.2 |
| 20260504220003 | 12 | 240 | 1.6 | 4.8 | 0.00 | 0.51 | 0.00 | 84 | 1019.1 |
| 20260504215403 | 12 | 240 | 1.6 | 4.8 | 0.00 | 0.51 | 0.00 | 85 | 1019.1 |
| 20260504214504 | 11 | 0 | 0.0 | 0.0 | 0.00 | 0.51 | 0.00 | 86 | 1019.0 |
| 20260504213603 | 11 | 240 | 0.0 | 3.2 | 0.00 | 0.51 | 0.00 | 88 | 1018.8 |
| 20260504212706 | 11 | 240 | 1.6 | 3.2 | 0.00 | 0.51 | 0.00 | 89 | 1018.6 |
| 20260504212016 | 11 | 240 | 1.6 | 3.2 | 0.00 | 0.51 | 0.00 | 89 | 1018.5 |
| 20260504210903 | 10 | 240 | 1.6 | 6.4 | 0.00 | 0.51 | 0.00 | 89 | 1018.3 |
| 20260504210004 | 11 | 258 | 1.6 | 4.8 | 0.00 | 0.51 | 0.00 | 89 | 1018.3 |
| 20260504205404 | 11 | 308 | 3.2 | 6.4 | 0.00 | 0.51 | 0.00 | 89 | 1018.3 |
| 20260504204503 | 10 | 314 | 3.2 | 6.4 | 0.00 | 0.51 | 0.00 | 91 | 1018.2 |
| 20260504203603 | 10 | 314 | 1.6 | 6.4 | 0.00 | 0.51 | 0.00 | 92 | 1018.1 |
| 20260504202917 | 10 | 314 | 0.0 | 3.2 | 0.00 | 0.51 | 0.00 | 92 | 1017.8 |
| 20260504202016 | 10 | 314 | 1.6 | 4.8 | 0.00 | 0.51 | 0.00 | 92 | 1017.7 |
| 20260504200903 | 10 | 314 | 0.0 | 3.2 | 0.00 | 0.51 | 0.00 | 92 | 1017.6 |
| 20260504200003 | 10 | 314 | 3.2 | 6.4 | 0.00 | 0.51 | 0.00 | 91 | 1017.5 |
| 20260504195403 | 11 | 314 | 3.2 | 6.4 | 0.00 | 0.51 | 0.00 | 91 | 1017.4 |
| 20260504194503 | 11 | 314 | 0.0 | 3.2 | 0.00 | 0.51 | 0.00 | 90 | 1017.4 |
| 20260504193603 | 11 | 314 | 1.6 | 4.8 | 0.00 | 0.51 | 0.00 | 90 | 1017.2 |
| 20260504192703 | 11 | 314 | 1.6 | 4.8 | 0.00 | 0.51 | 0.00 | 89 | 1017.2 |
| 20260504191803 | 12 | 314 | 3.2 | 4.8 | 0.00 | 0.51 | 0.00 | 88 | 1017.2 |
| 20260504190903 | 12 | 314 | 4.8 | 6.4 | 0.00 | 0.51 | 0.00 | 88 | 1017.2 |
| 20260504190004 | 12 | 314 | 4.8 | 8.0 | 0.00 | 0.51 | 0.00 | 90 | 1017.2 |
| 20260504185403 | 12 | 314 | 4.8 | 8.0 | 0.00 | 0.51 | 0.00 | 91 | 1017.1 |
| 20260504184503 | 12 | 315 | 6.4 | 8.0 | 0.00 | 0.51 | 0.00 | 92 | 1017.1 |
| 20260504183604 | 11 | 350 | 6.4 | 8.0 | 0.00 | 0.51 | 0.00 | 93 | 1016.9 |
| 20260504182916 | 11 | 93 | 4.8 | 6.4 | 0.00 | 0.51 | 0.00 | 94 | 1016.8 |
| 20260504181803 | 12 | 96 | 3.2 | 4.8 | 0.00 | 0.51 | 0.00 | 94 | 1016.7 |
| 20260504181119 | 12 | 96 | 1.6 | 4.8 | 0.00 | 0.51 | 0.00 | 94 | 1016.6 |
| 20260504180004 | 12 | 96 | 0.0 | 3.2 | 0.00 | 0.51 | 0.00 | 94 | 1016.6 |
| 20260504175617 | 12 | 96 | 1.6 | 4.8 | 0.00 | 0.51 | 0.00 | 94 | 1016.5 |
| 20260504174504 | 12 | 96 | 0.0 | 3.2 | 0.00 | 0.51 | 0.00 | 95 | 1016.5 |
| 20260504173603 | 13 | 96 | 0.0 | 3.2 | 0.00 | 0.51 | 0.00 | 95 | 1016.6 |
| 20260504172703 | 13 | 0 | 0.0 | 0.0 | 0.00 | 0.51 | 0.00 | 95 | 1016.5 |
| 20260504171804 | 13 | 0 | 0.0 | 0.0 | 0.00 | 0.51 | 0.00 | 95 | 1016.4 |
| 20260504170903 | 13 | 96 | 0.0 | 3.2 | 0.00 | 0.51 | 0.00 | 94 | 1016.4 |
| 20260504160217 | 16 | 0 | 0.0 | 0.0 | 0.00 | 0.51 | 0.00 | 96 | 1016.5 |
| 20260504150906 | 16 | 98 | 1.6 | 3.2 | 0.00 | 0.51 | 0.00 | 96 | 1016.1 |
| 20260504141117 | 17 | 98 | 0.0 | 3.2 | 0.00 | 0.51 | 0.00 | 95 | 1016.2 |
| 20260504120216 | 17 | 207 | 3.2 | 6.4 | 0.00 | 0.48 | 0.48 | 92 | 1016.2 |
| 20260504081803 | 18 | 57 | 3.2 | 6.4 | 0.00 | 0.48 | 0.48 | 87 | 1014.7 |
| 20260504080903 | 18 | 57 | 1.6 | 4.8 | 0.00 | 0.48 | 0.48 | 87 | 1014.5 |
| 20260504070218 | 19 | 58 | 6.4 | 9.7 | 0.00 | 0.48 | 0.48 | 86 | 1014.4 |